Hourly Data Report for July 10, 2011

HALIFAX STANFIELD INT'L A
NOVA SCOTIA

44°52'48.060" N
63°30'00.050" W
145.40 m
8202250
71395
YHZ

Download Data

Hourly Data (July 2011)
Hourly Data Report for July 10, 2011
TIME
LST
Temp Definition
°C
Dew Point Definition
°C
Rel Hum Definition
%
Precip. Amount Definition
mm

Wind Dir Definition
10's deg

Wind Spd Definition
km/h
Visibility Definition
km
Stn Press Definition
kPa
Hmdx Definition


Wind Chill Definition


Weather Definition


00:00 15.9 14.8 93   30 19 24.1 98.86     Mostly Cloudy
01:00 15.7 14.6 93   28 24 24.1 98.88     Mainly Clear
02:00 15.0 13.6 91   29 22 24.1 98.91     Mainly Clear
03:00 14.3 12.6 90   29 22 24.1 98.98     Clear
04:00 13.5 11.8 89   29 19 24.1 99.06     Mainly Clear
05:00 13.4 11.5 88   29 20 24.1 99.15     Mainly Clear
06:00 14.7 11.7 82   30 26 24.1 99.19     Mainly Clear
07:00 16.1 11.3 73   30 30 24.1 99.29     Mainly Clear
08:00 17.6 11.5 67   31 28 24.1 99.37     Mainly Clear
09:00 18.1 11.6 66   31 22 24.1 99.45     Mainly Clear
10:00 19.9 11.3 58   31 39 24.1 99.44     Mainly Clear
11:00 21.4 10.1 48   31 33 24.1 99.47     Mainly Clear
12:00 22.3 10.0 46   31 28 24.1 99.48     Mainly Clear
13:00 23.3 9.0 40   32 37 24.1 99.52     Mainly Clear
14:00 23.9 8.7 38   32 30 24.1 99.55 25   Mainly Clear
15:00 24.6 9.5 38   33 26 24.1 99.57 26   Mainly Clear
16:00 24.9 8.8 36   32 19 24.1 99.61 26   Mainly Clear
17:00 24.8 10.0 39   30 22 24.1 99.63 26   Clear
18:00 24.2 10.1 41   28 15 24.1 99.66 26   Clear
19:00 22.1 11.3 50   28 11 24.1 99.73     Mainly Clear
20:00 18.9 11.4 62   27 7 24.1 99.76     Mainly Clear
21:00 18.7 10.1 57   26 7 24.1 99.81     Mainly Clear
22:00 18.0 10.6 62   26 9 24.1 99.82     Mainly Clear
23:00 18.4 9.8 57   27 11 24.1 99.81     Mainly Clear

Notes on Data Quality.

Legend

  • E = Estimated
  • M = Missing
  • NA = Not Available*
  • [empty] = Indicates an unobserved value
Date modified: